Time,TemperatureF,DewpointF,PressureIn,WindDirection,WindDirectionDegrees,WindSpeedMPH,WindSpeedGustMPH,Humidity,HourlyPrecipIn,Conditions,Clouds,dailyrainin,SoftwareType,DateUTC
2013-11-22 00:00:00,57.8,52.7,30.32,WNW,300,0.0,9.0,83,0.00,,,0.00,Wunderground v.1.15,2013-11-22 05:00:00,
2013-11-22 00:05:00,57.8,53.0,30.32,West,267,1.0,9.0,84,0.00,,,0.00,Wunderground v.1.15,2013-11-22 05:05:00,
2013-11-22 00:10:00,57.7,52.9,30.32,NW,304,1.0,1.0,84,0.00,,,0.00,Wunderground v.1.15,2013-11-22 05:10:00,
2013-11-22 00:15:00,57.7,52.9,30.31,WNW,296,1.0,9.0,84,0.00,,,0.00,Wunderground v.1.15,2013-11-22 05:15:00,
2013-11-22 00:20:00,57.7,52.9,30.31,West,260,1.0,1.0,84,0.00,,,0.00,Wunderground v.1.15,2013-11-22 05:20:00,
2013-11-22 00:25:00,57.6,52.8,30.31,WNW,286,1.0,9.0,84,0.00,,,0.00,Wunderground v.1.15,2013-11-22 05:25:00,
2013-11-22 00:30:00,57.6,53.1,30.31,WNW,302,1.0,1.0,85,0.00,,,0.00,Wunderground v.1.15,2013-11-22 05:30:00,
2013-11-22 00:35:00,57.6,53.1,30.30,WNW,284,1.0,9.0,85,0.00,,,0.00,Wunderground v.1.15,2013-11-22 05:35:00,
2013-11-22 00:40:00,57.6,53.1,30.30,West,260,1.0,9.0,85,0.00,,,0.00,Wunderground v.1.15,2013-11-22 05:40:00,
2013-11-22 00:44:00,57.7,53.2,30.30,WSW,253,1.0,9.0,85,0.00,,,0.00,Wunderground v.1.15,2013-11-22 05:44:00,
2013-11-22 00:50:00,57.6,53.1,30.30,SW,231,0.0,9.0,85,0.00,,,0.00,Wunderground v.1.15,2013-11-22 05:50:00,
2013-11-22 00:55:00,57.5,53.0,30.30,SW,232,0.0,9.0,85,0.00,,,0.00,Wunderground v.1.15,2013-11-22 05:55:00,
2013-11-22 01:05:00,57.4,53.2,30.30,West,261,1.0,1.0,86,0.00,,,0.00,Wunderground v.1.15,2013-11-22 06:05:00,
2013-11-22 01:15:00,57.4,53.2,30.29,West,259,0.0,9.0,86,0.00,,,0.00,Wunderground v.1.15,2013-11-22 06:15:00,
2013-11-22 01:20:00,57.4,53.2,30.29,West,260,0.0,9.0,86,0.00,,,0.00,Wunderground v.1.15,2013-11-22 06:20:00,
2013-11-22 01:30:00,57.3,53.1,30.29,WSW,257,1.0,9.0,86,0.00,,,0.00,Wunderground v.1.15,2013-11-22 06:30:00,
2013-11-22 01:35:00,57.3,53.1,30.29,West,273,0.0,9.0,86,0.00,,,0.00,Wunderground v.1.15,2013-11-22 06:35:00,
2013-11-22 01:40:00,57.3,53.1,30.30,WSW,257,1.0,9.0,86,0.00,,,0.00,Wunderground v.1.15,2013-11-22 06:40:00,
2013-11-22 01:50:00,57.1,53.3,30.30,WSW,252,0.0,9.0,87,0.00,,,0.00,Wunderground v.1.15,2013-11-22 06:50:00,
2013-11-22 01:55:00,56.9,53.4,30.30,West,265,0.0,9.0,88,0.00,,,0.00,Wunderground v.1.15,2013-11-22 06:55:00,
2013-11-22 02:05:00,56.6,53.4,30.31,WNW,288,0.0,9.0,89,0.00,,,0.00,Wunderground v.1.15,2013-11-22 07:05:00,
2013-11-22 02:09:00,56.6,53.4,30.31,WNW,293,0.0,9.0,89,0.00,,,0.00,Wunderground v.1.15,2013-11-22 07:09:00,
2013-11-22 02:15:00,56.4,53.5,30.30,WNW,293,0.0,9.0,90,0.00,,,0.00,Wunderground v.1.15,2013-11-22 07:15:00,
2013-11-22 02:20:00,56.5,53.6,30.31,West,271,0.0,9.0,90,0.00,,,0.00,Wunderground v.1.15,2013-11-22 07:20:00,
2013-11-22 02:25:00,56.5,53.6,30.31,WNW,286,0.0,9.0,90,0.00,,,0.00,Wunderground v.1.15,2013-11-22 07:25:00,
2013-11-22 02:30:00,56.5,53.6,30.31,WNW,288,0.0,9.0,90,0.00,,,0.00,Wunderground v.1.15,2013-11-22 07:30:00,
2013-11-22 02:35:00,56.5,53.6,30.31,WNW,288,0.0,9.0,90,0.00,,,0.00,Wunderground v.1.15,2013-11-22 07:35:00,
2013-11-22 02:40:00,56.5,53.6,30.31,West,279,0.0,9.0,90,0.00,,,0.00,Wunderground v.1.15,2013-11-22 07:40:00,
2013-11-22 02:45:00,56.5,53.6,30.30,West,271,0.0,9.0,90,0.00,,,0.00,Wunderground v.1.15,2013-11-22 07:45:00,
2013-11-22 02:55:00,56.3,53.7,30.31,West,274,0.0,9.0,91,0.00,,,0.01,Wunderground v.1.15,2013-11-22 07:55:00,
2013-11-22 03:05:00,56.1,53.8,30.30,West,265,0.0,9.0,92,0.00,,,0.01,Wunderground v.1.15,2013-11-22 08:05:00,
2013-11-22 03:15:00,55.9,53.6,30.30,WNW,289,0.0,9.0,92,0.00,,,0.01,Wunderground v.1.15,2013-11-22 08:15:00,
2013-11-22 03:20:00,55.7,53.7,30.30,WNW,286,0.0,9.0,93,0.00,,,0.01,Wunderground v.1.15,2013-11-22 08:20:00,
2013-11-22 03:25:00,55.5,53.5,30.30,WNW,290,0.0,9.0,93,0.00,,,0.02,Wunderground v.1.15,2013-11-22 08:25:00,
2013-11-22 03:35:00,55.3,53.6,30.30,WNW,296,0.0,9.0,94,0.00,,,0.02,Wunderground v.1.15,2013-11-22 08:35:00,
2013-11-22 03:40:00,55.3,53.6,30.29,WNW,296,0.0,9.0,94,0.00,,,0.02,Wunderground v.1.15,2013-11-22 08:40:00,
2013-11-22 03:45:00,55.3,53.9,30.30,WNW,295,0.0,9.0,95,0.00,,,0.02,Wunderground v.1.15,2013-11-22 08:45:00,
2013-11-22 03:55:00,55.3,53.9,30.29,WNW,290,0.0,9.0,95,0.00,,,0.02,Wunderground v.1.15,2013-11-22 08:55:00,
2013-11-22 04:05:00,55.2,53.8,30.29,WNW,284,0.0,9.0,95,0.00,,,0.02,Wunderground v.1.15,2013-11-22 09:05:00,
2013-11-22 04:10:00,55.2,53.8,30.29,WNW,284,0.0,9.0,95,0.00,,,0.02,Wunderground v.1.15,2013-11-22 09:10:00,
2013-11-22 04:14:00,55.1,53.7,30.29,West,279,0.0,9.0,95,0.00,,,0.02,Wunderground v.1.15,2013-11-22 09:14:00,
2013-11-22 04:20:00,55.1,54.0,30.29,West,272,1.0,9.0,96,0.00,,,0.02,Wunderground v.1.15,2013-11-22 09:20:00,
2013-11-22 04:25:00,55.2,54.1,30.30,WSW,258,0.0,9.0,96,0.00,,,0.03,Wunderground v.1.15,2013-11-22 09:25:00,
2013-11-22 04:30:00,55.1,54.0,30.30,WSW,258,0.0,9.0,96,0.00,,,0.03,Wunderground v.1.15,2013-11-22 09:30:00,
2013-11-22 04:35:00,55.0,53.9,30.30,WSW,258,0.0,9.0,96,0.00,,,0.03,Wunderground v.1.15,2013-11-22 09:35:00,
2013-11-22 04:40:00,55.0,53.9,30.29,WSW,258,0.0,9.0,96,0.00,,,0.03,Wunderground v.1.15,2013-11-22 09:40:00,
2013-11-22 04:45:00,54.9,53.8,30.29,West,266,0.0,9.0,96,0.83,,,0.06,Wunderground v.1.15,2013-11-22 09:45:00,
2013-11-22 04:50:00,54.9,54.1,30.29,West,272,0.0,9.0,97,0.19,,,0.08,Wunderground v.1.15,2013-11-22 09:50:00,
2013-11-22 04:55:00,54.9,54.1,30.29,West,279,0.0,9.0,97,0.10,,,0.09,Wunderground v.1.15,2013-11-22 09:55:00,
2013-11-22 05:00:00,54.9,54.1,30.29,West,277,0.0,9.0,97,0.15,,,0.10,Wunderground v.1.15,2013-11-22 10:00:00,
2013-11-22 05:05:00,54.8,54.0,30.29,West,277,0.0,9.0,97,0.07,,,0.10,Wunderground v.1.15,2013-11-22 10:05:00,
2013-11-22 05:10:00,54.7,53.9,30.29,West,277,0.0,9.0,97,0.04,,,0.10,Wunderground v.1.15,2013-11-22 10:10:00,
2013-11-22 05:15:00,54.7,53.9,30.29,West,277,0.0,9.0,97,0.00,,,0.10,Wunderground v.1.15,2013-11-22 10:15:00,
2013-11-22 05:19:00,54.7,53.9,30.29,West,277,0.0,9.0,97,0.00,,,0.10,Wunderground v.1.15,2013-11-22 10:19:00,
2013-11-22 05:25:00,54.7,53.9,30.29,West,277,0.0,9.0,97,0.00,,,0.11,Wunderground v.1.15,2013-11-22 10:25:00,
2013-11-22 05:30:00,54.6,53.8,30.29,WSW,250,0.0,9.0,97,0.00,,,0.11,Wunderground v.1.15,2013-11-22 10:30:00,
2013-11-22 05:40:00,54.5,53.7,30.28,WSW,238,1.0,1.0,97,0.00,,,0.11,Wunderground v.1.15,2013-11-22 10:40:00,
2013-11-22 05:45:00,54.5,53.9,30.28,WSW,238,0.0,9.0,98,0.00,,,0.12,Wunderground v.1.15,2013-11-22 10:45:00,
2013-11-22 05:49:00,54.5,53.9,30.28,WSW,238,0.0,9.0,98,0.00,,,0.12,Wunderground v.1.15,2013-11-22 10:49:00,
2013-11-22 05:55:00,54.5,53.9,30.28,WSW,238,0.0,9.0,98,0.00,,,0.12,Wunderground v.1.15,2013-11-22 10:55:00,
2013-11-22 06:00:00,54.6,54.0,30.28,WSW,238,0.0,9.0,98,0.00,,,0.12,Wunderground v.1.15,2013-11-22 11:00:00,
2013-11-22 06:05:00,54.7,54.1,30.28,WSW,238,0.0,9.0,98,0.00,,,0.12,Wunderground v.1.15,2013-11-22 11:05:00,
2013-11-22 06:10:00,54.8,54.2,30.28,West,263,0.0,9.0,98,0.00,,,0.12,Wunderground v.1.15,2013-11-22 11:10:00,
2013-11-22 06:14:00,54.8,54.2,30.28,WSW,253,1.0,9.0,98,0.00,,,0.12,Wunderground v.1.15,2013-11-22 11:14:00,
2013-11-22 06:20:00,54.6,54.0,30.28,WSW,253,0.0,9.0,98,0.00,,,0.12,Wunderground v.1.15,2013-11-22 11:20:00,
2013-11-22 06:25:00,54.5,53.9,30.28,West,260,0.0,9.0,98,0.00,,,0.13,Wunderground v.1.15,2013-11-22 11:25:00,
2013-11-22 06:35:00,54.4,53.8,30.28,West,267,0.0,9.0,98,0.09,,,0.14,Wunderground v.1.15,2013-11-22 11:35:00,
2013-11-22 06:40:00,54.4,53.8,30.29,West,268,1.0,9.0,98,0.07,,,0.14,Wunderground v.1.15,2013-11-22 11:40:00,
2013-11-22 06:45:00,54.5,53.9,30.28,West,268,1.0,9.0,98,0.05,,,0.15,Wunderground v.1.15,2013-11-22 11:45:00,
2013-11-22 06:50:00,54.5,54.2,30.29,West,263,1.0,9.0,99,0.12,,,0.16,Wunderground v.1.15,2013-11-22 11:50:00,
2013-11-22 06:54:00,54.6,54.3,30.28,West,263,1.0,9.0,99,0.12,,,0.16,Wunderground v.1.15,2013-11-22 11:54:00,
2013-11-22 07:05:00,54.6,54.3,30.29,WSW,252,1.0,1.0,99,0.04,,,0.16,Wunderground v.1.15,2013-11-22 12:05:00,
2013-11-22 07:10:00,54.6,54.3,30.29,West,261,1.0,9.0,99,0.00,,,0.16,Wunderground v.1.15,2013-11-22 12:10:00,
2013-11-22 07:19:00,54.8,54.5,30.29,WSW,252,3.0,3.0,99,0.13,,,0.18,Wunderground v.1.15,2013-11-22 12:19:00,
2013-11-22 07:25:00,54.8,54.5,30.29,WSW,256,3.0,3.0,99,0.07,,,0.18,Wunderground v.1.15,2013-11-22 12:25:00,
2013-11-22 07:30:00,54.9,54.6,30.29,West,262,3.0,9.0,99,0.04,,,0.18,Wunderground v.1.15,2013-11-22 12:30:00,
2013-11-22 07:35:00,55.1,54.8,30.29,WSW,242,3.0,9.0,99,0.04,,,0.19,Wunderground v.1.15,2013-11-22 12:35:00,
2013-11-22 07:39:00,55.1,54.8,30.29,West,281,3.0,9.0,99,0.04,,,0.19,Wunderground v.1.15,2013-11-22 12:39:00,
2013-11-22 07:45:00,55.1,54.8,30.29,West,265,2.0,9.0,99,0.04,,,0.19,Wunderground v.1.15,2013-11-22 12:45:00,
2013-11-22 07:50:00,55.1,54.8,30.29,WSW,237,2.0,9.0,99,0.00,,,0.19,Wunderground v.1.15,2013-11-22 12:50:00,
2013-11-22 07:54:00,55.1,54.8,30.29,WSW,252,3.0,9.0,99,0.00,,,0.20,Wunderground v.1.15,2013-11-22 12:54:00,
2013-11-22 08:05:00,55.1,54.8,30.28,WSW,257,2.0,9.0,99,0.00,,,0.20,Wunderground v.1.15,2013-11-22 13:05:00,
2013-11-22 08:10:00,55.1,54.8,30.28,West,261,2.0,9.0,99,0.00,,,0.20,Wunderground v.1.15,2013-11-22 13:10:00,
2013-11-22 08:14:00,55.2,54.9,30.28,SW,227,3.0,9.0,99,0.00,,,0.20,Wunderground v.1.15,2013-11-22 13:14:00,
2013-11-22 08:20:00,55.3,55.0,30.28,West,271,3.0,9.0,99,0.00,,,0.20,Wunderground v.1.15,2013-11-22 13:20:00,
2013-11-22 08:25:00,55.4,55.1,30.28,West,261,3.0,3.0,99,0.00,,,0.20,Wunderground v.1.15,2013-11-22 13:25:00,
2013-11-22 08:30:00,55.4,55.1,30.28,West,267,3.0,9.0,99,0.00,,,0.20,Wunderground v.1.15,2013-11-22 13:30:00,
2013-11-22 08:40:00,55.4,55.1,30.28,SW,229,3.0,4.0,99,0.00,,,0.20,Wunderground v.1.15,2013-11-22 13:40:00,
2013-11-22 08:49:00,55.5,55.2,30.28,West,265,3.0,6.0,99,0.00,,,0.20,Wunderground v.1.15,2013-11-22 13:49:00,
2013-11-22 08:55:00,55.7,55.4,30.28,West,268,3.0,9.0,99,0.00,,,0.20,Wunderground v.1.15,2013-11-22 13:55:00,
2013-11-22 09:00:00,55.7,55.4,30.28,West,279,2.0,2.0,99,0.00,,,0.20,Wunderground v.1.15,2013-11-22 14:00:00,
2013-11-22 09:10:00,55.9,55.6,30.28,West,262,1.0,9.0,99,0.00,,,0.20,Wunderground v.1.15,2013-11-22 14:10:00,
2013-11-22 09:15:00,55.9,55.6,30.28,West,269,2.0,9.0,99,0.00,,,0.20,Wunderground v.1.15,2013-11-22 14:15:00,
2013-11-22 09:20:00,56.0,55.7,30.28,SW,231,3.0,3.0,99,0.00,,,0.20,Wunderground v.1.15,2013-11-22 14:20:00,
2013-11-22 09:24:00,56.0,55.7,30.28,WNW,283,2.0,9.0,99,0.00,,,0.20,Wunderground v.1.15,2013-11-22 14:24:00,
2013-11-22 09:30:00,56.1,55.8,30.28,WSW,250,1.0,1.0,99,0.00,,,0.20,Wunderground v.1.15,2013-11-22 14:30:00,
2013-11-22 09:40:00,56.2,55.9,30.28,West,280,2.0,9.0,99,0.00,,,0.20,Wunderground v.1.15,2013-11-22 14:40:00,
2013-11-22 09:45:00,56.3,56.0,30.28,West,279,2.0,9.0,99,0.00,,,0.20,Wunderground v.1.15,2013-11-22 14:45:00,
2013-11-22 09:55:00,56.4,56.1,30.28,West,270,1.0,3.0,99,0.00,,,0.20,Wunderground v.1.15,2013-11-22 14:55:00,
2013-11-22 10:05:00,56.6,56.3,30.28,WSW,240,2.0,10.0,99,0.00,,,0.21,Wunderground v.1.15,2013-11-22 15:05:00,
2013-11-22 10:10:00,56.6,56.3,30.28,West,259,4.0,10.0,99,0.00,,,0.21,Wunderground v.1.15,2013-11-22 15:10:00,
2013-11-22 10:15:00,56.7,56.4,30.28,WNW,294,3.0,9.0,99,0.00,,,0.21,Wunderground v.1.15,2013-11-22 15:15:00,
2013-11-22 10:25:00,56.8,56.5,30.29,WNW,303,4.0,9.0,99,0.00,,,0.21,Wunderground v.1.15,2013-11-22 15:25:00,
2013-11-22 10:30:00,56.8,56.5,30.29,WNW,293,4.0,9.0,99,0.00,,,0.21,Wunderground v.1.15,2013-11-22 15:30:00,
2013-11-22 10:34:00,56.8,56.5,30.29,WNW,289,3.0,3.0,99,0.00,,,0.21,Wunderground v.1.15,2013-11-22 15:34:00,
2013-11-22 10:40:00,56.8,56.5,30.29,WNW,284,4.0,6.0,99,0.00,,,0.21,Wunderground v.1.15,2013-11-22 15:40:00,
2013-11-22 10:45:00,56.9,56.6,30.29,WNW,284,4.0,9.0,99,0.00,,,0.21,Wunderground v.1.15,2013-11-22 15:45:00,
2013-11-22 10:50:00,56.9,56.6,30.29,NW,309,4.0,9.0,99,0.00,,,0.21,Wunderground v.1.15,2013-11-22 15:50:00,
2013-11-22 10:55:00,56.9,56.6,30.29,NW,319,4.0,9.0,99,0.00,,,0.21,Wunderground v.1.15,2013-11-22 15:55:00,
2013-11-22 11:00:00,56.9,56.6,30.28,WNW,284,4.0,9.0,99,0.00,,,0.21,Wunderground v.1.15,2013-11-22 16:00:00,
2013-11-22 11:10:00,57.0,57.0,30.28,West,278,4.0,9.0,100,0.00,,,0.21,Wunderground v.1.15,2013-11-22 16:10:00,
2013-11-22 11:15:00,57.0,57.0,30.28,WNW,288,5.0,9.0,100,0.00,,,0.21,Wunderground v.1.15,2013-11-22 16:15:00,
2013-11-22 11:20:00,57.0,57.0,30.28,West,263,4.0,4.0,100,0.00,,,0.21,Wunderground v.1.15,2013-11-22 16:20:00,
2013-11-22 11:24:00,57.0,57.0,30.28,West,281,4.0,9.0,100,0.00,,,0.21,Wunderground v.1.15,2013-11-22 16:24:00,
2013-11-22 11:30:00,57.1,57.1,30.28,WNW,288,4.0,9.0,100,0.00,,,0.21,Wunderground v.1.15,2013-11-22 16:30:00,
2013-11-22 11:35:00,57.1,57.1,30.28,NW,311,4.0,9.0,100,0.00,,,0.21,Wunderground v.1.15,2013-11-22 16:35:00,
2013-11-22 11:40:00,57.1,57.1,30.28,WNW,302,4.0,9.0,100,0.00,,,0.21,Wunderground v.1.15,2013-11-22 16:40:00,
2013-11-22 11:45:00,57.1,57.1,30.27,NW,304,4.0,9.0,100,0.00,,,0.22,Wunderground v.1.15,2013-11-22 16:45:00,
2013-11-22 11:50:00,57.1,57.1,30.27,WNW,289,3.0,9.0,100,0.00,,,0.22,Wunderground v.1.15,2013-11-22 16:50:00,
2013-11-22 11:55:00,57.1,57.1,30.27,NW,313,2.0,9.0,100,0.00,,,0.22,Wunderground v.1.15,2013-11-22 16:55:00,
2013-11-22 12:04:00,57.1,57.1,30.27,NW,309,3.0,9.0,100,0.00,,,0.23,Wunderground v.1.15,2013-11-22 17:04:00,
2013-11-22 12:10:00,57.1,57.1,30.26,WNW,290,3.0,9.0,100,0.00,,,0.23,Wunderground v.1.15,2013-11-22 17:10:00,
2013-11-22 12:15:00,57.1,57.1,30.26,NW,306,3.0,9.0,100,0.00,,,0.23,Wunderground v.1.15,2013-11-22 17:15:00,
2013-11-22 12:19:00,57.1,57.1,30.25,NW,311,2.0,9.0,100,0.04,,,0.24,Wunderground v.1.15,2013-11-22 17:19:00,
2013-11-22 12:25:00,57.2,56.9,30.26,NW,309,2.0,9.0,99,0.04,,,0.24,Wunderground v.1.15,2013-11-22 17:25:00,
2013-11-22 12:30:00,57.1,56.8,30.25,WNW,297,3.0,9.0,99,0.04,,,0.24,Wunderground v.1.15,2013-11-22 17:30:00,
2013-11-22 12:40:00,57.1,56.8,30.25,NW,306,2.0,9.0,99,0.00,,,0.24,Wunderground v.1.15,2013-11-22 17:40:00,
2013-11-22 12:45:00,57.2,56.9,30.25,NW,317,2.0,9.0,99,0.00,,,0.24,Wunderground v.1.15,2013-11-22 17:45:00,
2013-11-22 12:50:00,57.1,56.8,30.25,NW,319,1.0,9.0,99,0.00,,,0.24,Wunderground v.1.15,2013-11-22 17:50:00,
2013-11-22 13:05:00,57.1,56.8,30.24,NW,311,2.0,2.0,99,0.00,,,0.25,Wunderground v.1.15,2013-11-22 18:05:00,
2013-11-22 13:10:00,57.1,56.8,30.24,NW,309,2.0,9.0,99,0.00,,,0.25,Wunderground v.1.15,2013-11-22 18:10:00,
2013-11-22 13:15:00,57.1,56.8,30.24,NW,320,1.0,1.0,99,0.00,,,0.26,Wunderground v.1.15,2013-11-22 18:15:00,
2013-11-22 13:24:00,57.1,56.8,30.24,WNW,300,1.0,9.0,99,0.00,,,0.26,Wunderground v.1.15,2013-11-22 18:24:00,
2013-11-22 13:30:00,57.0,56.7,30.24,NW,317,1.0,9.0,99,0.00,,,0.26,Wunderground v.1.15,2013-11-22 18:30:00,
2013-11-22 13:35:00,57.0,56.7,30.24,WNW,302,1.0,1.0,99,0.00,,,0.27,Wunderground v.1.15,2013-11-22 18:35:00,
2013-11-22 13:40:00,56.9,56.6,30.24,NNW,331,1.0,4.0,99,0.00,,,0.27,Wunderground v.1.15,2013-11-22 18:40:00,
2013-11-22 13:50:00,56.9,56.6,30.24,NW,315,1.0,2.0,99,0.00,,,0.27,Wunderground v.1.15,2013-11-22 18:50:00,
2013-11-22 13:55:00,56.8,56.5,30.24,NW,314,2.0,9.0,99,0.00,,,0.28,Wunderground v.1.15,2013-11-22 18:55:00,
2013-11-22 14:00:00,56.8,56.5,30.24,NW,311,3.0,9.0,99,0.00,,,0.28,Wunderground v.1.15,2013-11-22 19:00:00,
2013-11-22 14:04:00,56.8,56.5,30.24,NW,314,3.0,9.0,99,0.00,,,0.28,Wunderground v.1.15,2013-11-22 19:04:00,
2013-11-22 14:10:00,56.8,56.5,30.24,NW,309,2.0,2.0,99,0.04,,,0.29,Wunderground v.1.15,2013-11-22 19:10:00,
2013-11-22 14:20:00,56.7,56.4,30.24,NW,321,2.0,9.0,99,0.05,,,0.30,Wunderground v.1.15,2013-11-22 19:20:00,
2013-11-22 14:30:00,56.5,56.2,30.23,NW,306,3.0,9.0,99,0.05,,,0.30,Wunderground v.1.15,2013-11-22 19:30:00,
2013-11-22 14:34:00,56.4,56.1,30.24,NNW,346,4.0,9.0,99,0.04,,,0.30,Wunderground v.1.15,2013-11-22 19:34:00,
2013-11-22 14:40:00,56.4,56.1,30.24,NNW,340,3.0,3.0,99,0.00,,,0.30,Wunderground v.1.15,2013-11-22 19:40:00,
2013-11-22 14:45:00,55.9,55.3,30.24,NNW,340,4.0,7.0,98,0.00,,,0.31,Wunderground v.1.15,2013-11-22 19:45:00,
2013-11-22 14:50:00,55.1,54.3,30.24,NNW,334,6.0,9.0,97,0.00,,,0.31,Wunderground v.1.15,2013-11-22 19:50:00,
2013-11-22 14:55:00,54.7,54.1,30.24,NNW,344,6.0,9.0,98,0.00,,,0.31,Wunderground v.1.15,2013-11-22 19:55:00,
2013-11-22 15:05:00,54.5,53.9,30.24,NW,311,5.0,5.0,98,0.00,,,0.31,Wunderground v.1.15,2013-11-22 20:05:00,
2013-11-22 15:10:00,54.4,53.8,30.25,North,355,6.0,6.0,98,0.00,,,0.32,Wunderground v.1.15,2013-11-22 20:10:00,
2013-11-22 15:15:00,54.2,53.6,30.25,NNW,335,5.0,5.0,98,0.00,,,0.32,Wunderground v.1.15,2013-11-22 20:15:00,
2013-11-22 15:20:00,54.2,53.6,30.25,NNW,338,3.0,9.0,98,0.00,,,0.32,Wunderground v.1.15,2013-11-22 20:20:00,
2013-11-22 15:25:00,54.1,53.5,30.25,NNW,331,2.0,2.0,98,0.00,,,0.32,Wunderground v.1.15,2013-11-22 20:25:00,
2013-11-22 15:30:00,54.1,53.5,30.25,North,355,2.0,10.0,98,0.00,,,0.33,Wunderground v.1.15,2013-11-22 20:30:00,
2013-11-22 15:35:00,54.0,53.4,30.26,NNW,343,3.0,9.0,98,0.11,,,0.34,Wunderground v.1.15,2013-11-22 20:35:00,
2013-11-22 15:39:00,53.8,53.2,30.26,North,355,5.0,9.0,98,0.07,,,0.35,Wunderground v.1.15,2013-11-22 20:39:00,
2013-11-22 15:45:00,53.7,53.1,30.26,NNW,348,6.0,6.0,98,0.13,,,0.36,Wunderground v.1.15,2013-11-22 20:45:00,
2013-11-22 15:50:00,53.5,52.9,30.26,North,355,7.0,7.0,98,0.09,,,0.36,Wunderground v.1.15,2013-11-22 20:50:00,
2013-11-22 15:55:00,53.2,52.7,30.27,NNE,32,7.0,11.0,98,0.05,,,0.36,Wunderground v.1.15,2013-11-22 20:55:00,
2013-11-22 16:05:00,52.8,52.3,30.27,NNE,12,6.0,6.0,98,0.05,,,0.37,Wunderground v.1.15,2013-11-22 21:05:00,
2013-11-22 16:10:00,52.7,52.2,30.27,NE,44,6.0,9.0,98,0.05,,,0.38,Wunderground v.1.15,2013-11-22 21:10:00,
2013-11-22 16:20:00,52.1,51.6,30.28,North,9,7.0,9.0,98,0.04,,,0.38,Wunderground v.1.15,2013-11-22 21:20:00,
2013-11-22 16:25:00,51.9,51.4,30.28,North,360,6.0,6.0,98,0.00,,,0.38,Wunderground v.1.15,2013-11-22 21:25:00,
2013-11-22 16:30:00,51.9,51.4,30.28,NE,42,5.0,9.0,98,0.00,,,0.38,Wunderground v.1.15,2013-11-22 21:30:00,
2013-11-22 16:35:00,51.6,51.1,30.28,North,360,3.0,9.0,98,0.00,,,0.38,Wunderground v.1.15,2013-11-22 21:35:00,
2013-11-22 16:40:00,51.4,50.9,30.29,ENE,60,4.0,9.0,98,0.00,,,0.38,Wunderground v.1.15,2013-11-22 21:40:00,
2013-11-22 16:44:00,51.3,50.8,30.29,NNE,14,4.0,9.0,98,0.00,,,0.38,Wunderground v.1.15,2013-11-22 21:44:00,
2013-11-22 16:50:00,51.0,50.5,30.30,North,5,5.0,9.0,98,0.00,,,0.38,Wunderground v.1.15,2013-11-22 21:50:00,
2013-11-22 16:55:00,50.8,50.3,30.29,North,5,6.0,6.0,98,0.00,,,0.39,Wunderground v.1.15,2013-11-22 21:55:00,
2013-11-22 17:05:00,50.5,50.0,30.29,NNW,346,5.0,5.0,98,0.00,,,0.39,Wunderground v.1.15,2013-11-22 22:05:00,
2013-11-22 17:10:00,50.3,49.5,30.29,NNW,334,6.0,6.0,97,0.05,,,0.40,Wunderground v.1.15,2013-11-22 22:10:00,
2013-11-22 17:15:00,50.2,49.4,30.29,NNE,19,6.0,14.0,97,0.05,,,0.40,Wunderground v.1.15,2013-11-22 22:15:00,
2013-11-22 17:20:00,50.1,49.3,30.29,NE,53,7.0,14.0,97,0.05,,,0.41,Wunderground v.1.15,2013-11-22 22:20:00,
2013-11-22 17:25:00,50.0,49.2,30.29,NNE,23,7.0,12.0,97,0.05,,,0.41,Wunderground v.1.15,2013-11-22 22:25:00,
2013-11-22 17:30:00,49.9,49.1,30.30,North,351,7.0,12.0,97,0.05,,,0.41,Wunderground v.1.15,2013-11-22 22:30:00,
2013-11-22 17:35:00,49.8,49.0,30.31,North,355,6.0,9.0,97,0.00,,,0.41,Wunderground v.1.15,2013-11-22 22:35:00,
2013-11-22 17:40:00,49.8,49.0,30.31,North,350,6.0,9.0,97,0.00,,,0.41,Wunderground v.1.15,2013-11-22 22:40:00,
2013-11-22 17:45:00,49.7,48.9,30.31,NNE,14,4.0,4.0,97,0.00,,,0.41,Wunderground v.1.15,2013-11-22 22:45:00,
2013-11-22 17:55:00,49.6,48.8,30.31,NNW,346,4.0,4.0,97,0.00,,,0.41,Wunderground v.1.15,2013-11-22 22:55:00,
2013-11-22 18:05:00,49.4,48.6,30.32,NNW,348,6.0,6.0,97,0.00,,,0.42,Wunderground v.1.15,2013-11-22 23:05:00,
2013-11-22 18:10:00,49.3,48.2,30.32,North,11,6.0,9.0,96,0.00,,,0.42,Wunderground v.1.15,2013-11-22 23:10:00,
2013-11-22 18:15:00,49.2,48.4,30.32,North,5,4.0,9.0,97,0.00,,,0.42,Wunderground v.1.15,2013-11-22 23:15:00,
2013-11-22 18:20:00,49.1,48.3,30.33,North,5,4.0,9.0,97,0.00,,,0.42,Wunderground v.1.15,2013-11-22 23:20:00,
2013-11-22 18:25:00,49.0,48.2,30.33,NNE,16,4.0,4.0,97,0.00,,,0.42,Wunderground v.1.15,2013-11-22 23:25:00,
2013-11-22 18:35:00,48.4,47.3,30.33,NNE,29,7.0,12.0,96,0.00,,,0.42,Wunderground v.1.15,2013-11-22 23:35:00,
2013-11-22 18:40:00,47.9,46.8,30.33,NE,39,9.0,12.0,96,0.00,,,0.42,Wunderground v.1.15,2013-11-22 23:40:00,
2013-11-22 18:44:00,47.3,45.9,30.34,NE,40,9.0,9.0,95,0.00,,,0.42,Wunderground v.1.15,2013-11-22 23:44:00,
2013-11-22 18:50:00,47.1,45.7,30.35,North,360,7.0,9.0,95,0.00,,,0.42,Wunderground v.1.15,2013-11-22 23:50:00,
2013-11-22 19:00:00,46.4,45.0,30.34,North,9,7.0,7.0,95,0.00,,,0.42,Wunderground v.1.15,2013-11-23 00:00:00,
2013-11-22 19:05:00,46.2,44.8,30.34,NNE,26,7.0,9.0,95,0.00,,,0.42,Wunderground v.1.15,2013-11-23 00:05:00,
2013-11-22 19:10:00,46.0,44.6,30.35,NE,48,6.0,9.0,95,0.00,,,0.42,Wunderground v.1.15,2013-11-23 00:10:00,
2013-11-22 19:15:00,45.9,44.5,30.35,NNE,15,6.0,9.0,95,0.00,,,0.42,Wunderground v.1.15,2013-11-23 00:15:00,
2013-11-22 19:20:00,45.9,44.3,30.35,NE,51,6.0,9.0,94,0.00,,,0.42,Wunderground v.1.15,2013-11-23 00:20:00,
2013-11-22 19:25:00,45.9,44.3,30.35,North,5,6.0,9.0,94,0.00,,,0.42,Wunderground v.1.15,2013-11-23 00:25:00,
2013-11-22 19:35:00,45.7,44.1,30.35,ENE,67,6.0,7.0,94,0.00,,,0.42,Wunderground v.1.15,2013-11-23 00:35:00,
2013-11-22 19:40:00,45.6,44.0,30.35,ENE,73,6.0,6.0,94,0.00,,,0.42,Wunderground v.1.15,2013-11-23 00:40:00,
2013-11-22 19:44:00,45.6,43.7,30.35,NE,56,5.0,9.0,93,0.00,,,0.42,Wunderground v.1.15,2013-11-23 00:44:00,
2013-11-22 19:50:00,45.5,43.9,30.36,NE,45,4.0,4.0,94,0.00,,,0.42,Wunderground v.1.15,2013-11-23 00:50:00,
2013-11-22 19:54:00,45.4,43.8,30.36,NNE,30,4.0,9.0,94,0.00,,,0.42,Wunderground v.1.15,2013-11-23 00:54:00,
2013-11-22 20:05:00,45.2,43.6,30.35,NE,40,5.0,5.0,94,0.00,,,0.42,Wunderground v.1.15,2013-11-23 01:05:00,
2013-11-22 20:10:00,45.1,43.2,30.35,ENE,65,4.0,7.0,93,0.00,,,0.42,Wunderground v.1.15,2013-11-23 01:10:00,
2013-11-22 20:15:00,44.9,43.3,30.35,NE,40,3.0,3.0,94,0.00,,,0.42,Wunderground v.1.15,2013-11-23 01:15:00,
2013-11-22 20:20:00,44.8,43.2,30.36,ENE,57,2.0,9.0,94,0.00,,,0.42,Wunderground v.1.15,2013-11-23 01:20:00,
2013-11-22 20:30:00,44.7,43.1,30.36,NE,40,1.0,9.0,94,0.00,,,0.42,Wunderground v.1.15,2013-11-23 01:30:00,
2013-11-22 20:34:00,44.7,43.1,30.36,NNE,24,3.0,3.0,94,0.00,,,0.42,Wunderground v.1.15,2013-11-23 01:34:00,
2013-11-22 20:40:00,44.6,43.0,30.36,North,355,2.0,4.0,94,0.00,,,0.42,Wunderground v.1.15,2013-11-23 01:40:00,
2013-11-22 20:45:00,44.5,42.9,30.37,NNE,28,2.0,2.0,94,0.00,,,0.42,Wunderground v.1.15,2013-11-23 01:45:00,
2013-11-22 20:50:00,44.5,42.9,30.38,NNE,15,2.0,9.0,94,0.00,,,0.42,Wunderground v.1.15,2013-11-23 01:50:00,
2013-11-22 20:55:00,44.5,42.9,30.38,NNE,19,2.0,2.0,94,0.00,,,0.42,Wunderground v.1.15,2013-11-23 01:55:00,
2013-11-22 21:00:00,44.3,42.4,30.38,NNW,347,4.0,9.0,93,0.00,,,0.42,Wunderground v.1.15,2013-11-23 02:00:00,
2013-11-22 21:05:00,44.2,42.0,30.39,NNE,19,5.0,9.0,92,0.00,,,0.42,Wunderground v.1.15,2013-11-23 02:05:00,
2013-11-22 21:14:00,44.0,41.3,30.39,NE,42,6.0,13.0,90,0.00,,,0.42,Wunderground v.1.15,2013-11-23 02:14:00,
2013-11-22 21:20:00,43.7,40.7,30.38,ENE,78,6.0,6.0,89,0.00,,,0.42,Wunderground v.1.15,2013-11-23 02:20:00,
2013-11-22 21:30:00,43.2,39.9,30.39,NE,48,8.0,8.0,88,0.00,,,0.42,Wunderground v.1.15,2013-11-23 02:30:00,
2013-11-22 21:35:00,43.1,39.8,30.40,NE,38,7.0,9.0,88,0.00,,,0.42,Wunderground v.1.15,2013-11-23 02:35:00,
2013-11-22 21:39:00,42.9,39.3,30.40,NE,53,6.0,6.0,87,0.00,,,0.42,Wunderground v.1.15,2013-11-23 02:39:00,
2013-11-22 21:45:00,42.7,39.1,30.39,ENE,61,5.0,8.0,87,0.00,,,0.42,Wunderground v.1.15,2013-11-23 02:45:00,
2013-11-22 21:50:00,42.6,38.7,30.40,NE,55,6.0,9.0,86,0.00,,,0.42,Wunderground v.1.15,2013-11-23 02:50:00,
2013-11-22 22:05:00,42.2,38.3,30.40,NNE,32,5.0,9.0,86,0.00,,,0.42,Wunderground v.1.15,2013-11-23 03:05:00,
2013-11-22 22:10:00,42.1,38.2,30.40,NNE,32,5.0,11.0,86,0.00,,,0.42,Wunderground v.1.15,2013-11-23 03:10:00,
2013-11-22 22:15:00,42.1,38.2,30.41,NE,53,6.0,6.0,86,0.00,,,0.42,Wunderground v.1.15,2013-11-23 03:15:00,
2013-11-22 22:20:00,42.0,38.4,30.41,North,9,4.0,9.0,87,0.00,,,0.42,Wunderground v.1.15,2013-11-23 03:20:00,
2013-11-22 22:25:00,41.8,37.9,30.41,NNE,29,3.0,9.0,86,0.00,,,0.42,Wunderground v.1.15,2013-11-23 03:25:00,
2013-11-22 22:30:00,41.7,37.8,30.41,ENE,65,5.0,9.0,86,0.00,,,0.42,Wunderground v.1.15,2013-11-23 03:30:00,
2013-11-22 22:35:00,41.6,37.7,30.41,NNE,24,4.0,9.0,86,0.00,,,0.42,Wunderground v.1.15,2013-11-23 03:35:00,
2013-11-22 22:40:00,41.4,37.2,30.41,ENE,64,4.0,9.0,85,0.00,,,0.42,Wunderground v.1.15,2013-11-23 03:40:00,
2013-11-22 22:44:00,41.4,37.2,30.40,NE,46,4.0,4.0,85,0.00,,,0.42,Wunderground v.1.15,2013-11-23 03:44:00,
2013-11-22 22:50:00,41.3,37.1,30.40,NE,44,3.0,9.0,85,0.00,,,0.42,Wunderground v.1.15,2013-11-23 03:50:00,
2013-11-22 22:55:00,41.2,37.0,30.40,NNE,31,3.0,3.0,85,0.00,,,0.42,Wunderground v.1.15,2013-11-23 03:55:00,
2013-11-22 23:00:00,41.1,37.2,30.41,North,11,2.0,2.0,86,0.00,,,0.42,Wunderground v.1.15,2013-11-23 04:00:00,
2013-11-22 23:10:00,41.0,36.8,30.41,ENE,68,3.0,3.0,85,0.00,,,0.42,Wunderground v.1.15,2013-11-23 04:10:00,
2013-11-22 23:15:00,40.9,36.7,30.40,ENE,77,3.0,9.0,85,0.00,,,0.42,Wunderground v.1.15,2013-11-23 04:15:00,
2013-11-22 23:19:00,40.9,36.7,30.41,North,355,2.0,9.0,85,0.00,,,0.42,Wunderground v.1.15,2013-11-23 04:19:00,
2013-11-22 23:25:00,40.8,36.9,30.40,NE,50,2.0,9.0,86,0.00,,,0.42,Wunderground v.1.15,2013-11-23 04:25:00,
2013-11-22 23:30:00,40.7,36.5,30.41,NE,50,2.0,9.0,85,0.00,,,0.42,Wunderground v.1.15,2013-11-23 04:30:00,
2013-11-22 23:40:00,40.6,36.7,30.41,NE,46,1.0,1.0,86,0.00,,,0.42,Wunderground v.1.15,2013-11-23 04:40:00,
2013-11-22 23:45:00,40.6,36.4,30.40,ENE,69,1.0,9.0,85,0.00,,,0.42,Wunderground v.1.15,2013-11-23 04:45:00,
2013-11-22 23:50:00,40.6,36.7,30.41,NE,38,1.0,9.0,86,0.00,,,0.42,Wunderground v.1.15,2013-11-23 04:50:00,